This is the latest recevied weather packets stored in our database for station/object KO4LCK. If no packets are shown the sender has not sent any weather packets the latest 10 day(s).
| Time | Temp. | Humidity | Pressure | Rain* | Wind** | Luminosity | Snow |
|---|---|---|---|---|---|---|---|
| 1777932085 | 27.22° C | 36% | 1014 hPa | 0 mm | - | 298 W/m² | - |
| 1777931781 | 27.22° C | 37% | 1014.1 hPa | 0 mm | - | 321 W/m² | - |
| 1777931479 | 27.22° C | 36% | 1014.1 hPa | 0 mm | - | 323 W/m² | - |
| 1777931174 | 27.22° C | 36% | 1014.2 hPa | 0 mm | - | 300 W/m² | - |
| 1777930870 | 27.22° C | 35% | 1014 hPa | 0 mm | - | 352 W/m² | - |
| 1777930567 | 27.78° C | 36% | 1014.3 hPa | 0 mm | - | 349 W/m² | - |
| 1777930264 | 27.22° C | 36% | 1014.2 hPa | 0 mm | - | 401 W/m² | - |
| 1777929960 | 27.78° C | 35% | 1014.3 hPa | 0 mm | - | 440 W/m² | - |
| 1777929657 | 27.22° C | 36% | 1014.1 hPa | 0 mm | - | 458 W/m² | - |
| 1777929354 | 27.22° C | 39% | 1014.2 hPa | 0 mm | - | 476 W/m² | - |
| 1777929051 | 26.67° C | 37% | 1014.2 hPa | 0 mm | - | 481 W/m² | - |
| 1777928748 | 26.67° C | 37% | 1014.4 hPa | 0 mm | - | 482 W/m² | - |
| 1777928445 | 26.67° C | 36% | 1014.5 hPa | 0 mm | - | 507 W/m² | - |
| 1777928143 | 26.67° C | 35% | 1014.6 hPa | 0 mm | - | 500 W/m² | - |
| 1777927841 | 26.67° C | 34% | 1014.7 hPa | 0 mm | - | 564 W/m² | - |
| 1777927538 | 26.67° C | 37% | 1014.6 hPa | 0 mm | - | 523 W/m² | - |
| 1777927237 | 26.67° C | 38% | 1014.7 hPa | 0 mm | - | 424 W/m² | - |
| 1777926935 | 27.22° C | 36% | 1014.8 hPa | 0 mm | - | 343 W/m² | - |
| 1777926632 | 26.67° C | 34% | 1014.6 hPa | 0 mm | - | 465 W/m² | - |
| 1777926327 | 26.67° C | 36% | 1014.6 hPa | 0 mm | - | 426 W/m² | - |
| 1777926024 | 26.67° C | 37% | 1014.7 hPa | 0 mm | - | 656 W/m² | - |
| 1777925721 | 26.67° C | 37% | 1014.8 hPa | 0 mm | - | 672 W/m² | - |
| 1777925419 | 26.67° C | 34% | 1014.8 hPa | 0 mm | - | 612 W/m² | - |
| 1777925115 | 26.11° C | 37% | 1015 hPa | 0 mm | - | 725 W/m² | - |
| 1777924812 | 25.56° C | 40% | 1015.1 hPa | 0 mm | - | 514 W/m² | - |
* Rain latest hour (hover to see other rain measurements)
** Current wind speed in m/s (hover to see current wind gust speed)